Regional Weather Roundup
Issued by NWS

Home | Current Version | Previous Version | Text Only | Print | Product List | Glossary Off
Versions: 1 2 3 4 5 6 7 8 9 10 11 12 13 14 15 16 17 18 19 20 21 22 23 24 25 26 27 28 29 30 31 32 33 34 35 36 37 38 39 40 41 42 43 44 45 46 47 48 49 50

000
ASUS44 KMEG 252000
RWRTN
TENNESSEE HOURLY STATE WEATHER ROUNDUP
NATIONAL WEATHER SERVICE MEMPHIS TN
300 PM CDT TUE APR 25 2017

TNZ002-004-019-021-049-052-054-088>092-252100-
WEST TENNESSEE

CITY           SKY/WX    TMP DP  RH WIND       PRES   REMARKS
MEMPHIS INTL   MOSUNNY   80  53  39 S20G28    29.66F
NWS MEMPHIS      N/A     82 N/A N/A MISG        N/A
JACKSON        SUNNY     79  52  38 S8        29.69F
DYERSBURG      SUNNY     79  52  38 S9G17     29.66F
PARIS          SUNNY     77  55  47 SE6       29.70F
$$

TNZ008-025-027-028-033-062-065-066-252100-
NORTH MIDDLE TENNESSEE

CITY           SKY/WX    TMP DP  RH WIND       PRES   REMARKS
NASHVILLE      PTSUNNY   75  56  51 S12       29.74F
CLARKSVILLE    MOSUNNY   76  56  49 SE8       29.71F
SMYRNA         PTSUNNY   75  58  55 CALM      29.75F
CROSSVILLE     PTSUNNY   71  54  54 NW7       29.78F
$$

TNZ061-075-076-078-094-096-097-252100-
SOUTH MIDDLE TENNESSEE

CITY           SKY/WX    TMP DP  RH WIND       PRES   REMARKS
TULLAHOMA      MOSUNNY   73  54  49 SW7       29.77F
WINCHESTER     SUNNY     73  55  53 VRB7      29.77S
COLUMBIA       SUNNY     75  61  60 VRB3      29.72F
SHELBYVILLE    SUNNY     75  59  57 VRB3      29.76F
$$

TNZ017-018-042-046-047-252100-
NORTHEAST TENNESSEE

CITY           SKY/WX    TMP DP  RH WIND       PRES   REMARKS
TRI CITIES     CLOUDY    65  56  72 SW7       29.76F
$$

TNZ012-013-036-069-073-074-252100-
CENTRAL EAST TENNESSEE

CITY           SKY/WX    TMP DP  RH WIND       PRES   REMARKS
KNOXVILLE      PTSUNNY   71  54  54 E3        29.74F
OAK RIDGE      CLOUDY    73  54  51 VRB3      29.75F
GATLINBURG     CLOUDY    70  54  56 N3        29.75F
$$

TNZ083-085-099-252100-
SOUTHEAST TENNESSEE

CITY           SKY/WX    TMP DP  RH WIND       PRES   REMARKS
CHATTANOOGA    MOSUNNY   77  54  44 CALM      29.74F
$$

SKY/WX REPORTED AS FAIR MEANS FEW OR NO CLOUDS BELOW
12 THOUSAND FEET.





USA.gov is the U.S. government's official web portal to all federal, state and local government web resources and services.